Location: Unspecified
(0.0000°N, 0.0000°E)
Time: 23:43:18
(UTC+00:00)

Vanguard 2 Rocket - Pass Details

Date: 20 December 2018
Orbit: 554 x 3327 km, 32.9° (Epoch: 18 January)

Event Time Altitude Azimuth Distance (km) Brightness Sun altitude
Rises 17:32:44 0° 241° (WSW) 6,350 13.8 5.7°
Reaches altitude 10° 17:39:01 10° 224° (SW) 5,763 12.5 4.3°
Maximum altitude 17:50:40 19° 184° (S) 5,471 11.3 1.6°
Drops below altitude 10° 18:03:15 10° 146° (SE) 6,221 11.0 -1.3°
Sets 18:10:35 0° 129° (SE) 7,001 11.1 -3.0°
